TimeEDT,TemperatureF,Dew PointF,Humidity,Sea Level PressureIn,VisibilityMPH,Wind Direction,Wind SpeedMPH,Gust SpeedMPH,PrecipitationIn,Events,Conditions,WindDirDegrees,DateUTC
12:10 AM,46.4,42.8,87,29.97,10.0,SW,5.8,-,N/A,,Clear,230,2012-09-30 04:10:00
12:35 AM,46.4,42.8,87,29.96,10.0,SW,5.8,-,N/A,,Scattered Clouds,230,2012-09-30 04:35:00
12:55 AM,46.4,42.8,87,29.95,10.0,SW,4.6,-,N/A,,Mostly Cloudy,230,2012-09-30 04:55:00
1:15 AM,46.4,42.8,87,29.95,10.0,NNW,5.8,-,N/A,,Overcast,340,2012-09-30 05:15:00
1:35 AM,44.6,42.8,93,29.96,10.0,NW,3.5,-,N/A,,Overcast,310,2012-09-30 05:35:00
2:00 AM,44.6,42.8,93,29.96,10.0,WNW,4.6,-,N/A,,Mostly Cloudy,290,2012-09-30 06:00:00
2:20 AM,44.6,42.8,93,29.95,10.0,West,4.6,-,N/A,,Clear,260,2012-09-30 06:20:00
2:40 AM,44.6,42.8,93,29.94,10.0,SW,5.8,-,N/A,,Scattered Clouds,230,2012-09-30 06:40:00
3:00 AM,44.6,44.6,100,29.94,10.0,WSW,6.9,-,N/A,,Mostly Cloudy,240,2012-09-30 07:00:00
3:25 AM,44.6,44.6,100,29.92,10.0,WSW,5.8,-,N/A,,Overcast,240,2012-09-30 07:25:00
3:45 AM,44.6,44.6,100,29.92,10.0,SW,5.8,-,N/A,,Overcast,230,2012-09-30 07:45:00
4:50 AM,42.8,42.8,100,29.93,10.0,North,3.5,-,N/A,,Overcast,360,2012-09-30 08:50:00
5:10 AM,42.8,42.8,100,29.92,7.0,NNE,3.5,-,N/A,,Mostly Cloudy,20,2012-09-30 09:10:00
5:30 AM,42.8,42.8,100,29.92,7.0,Calm,Calm,-,N/A,,Scattered Clouds,0,2012-09-30 09:30:00
5:50 AM,42.8,42.8,100,29.91,10.0,Calm,Calm,-,N/A,,Scattered Clouds,0,2012-09-30 09:50:00
6:15 AM,42.8,42.8,100,29.91,10.0,SW,4.6,-,N/A,,Clear,230,2012-09-30 10:15:00
6:55 AM,42.8,42.8,100,29.90,10.0,WSW,6.9,-,N/A,,Clear,240,2012-09-30 10:55:00
7:15 AM,42.8,42.8,100,29.90,10.0,WSW,5.8,-,N/A,,Clear,240,2012-09-30 11:15:00
7:40 AM,42.8,42.8,100,29.90,10.0,SW,4.6,-,N/A,,Mostly Cloudy,220,2012-09-30 11:40:00
8:00 AM,42.8,42.8,100,29.90,10.0,SSW,3.5,-,N/A,,Scattered Clouds,200,2012-09-30 12:00:00
8:20 AM,44.6,44.6,100,29.90,7.0,Calm,Calm,-,N/A,,Clear,0,2012-09-30 12:20:00
8:40 AM,44.6,44.6,100,29.90,10.0,South,5.8,-,N/A,,Clear,190,2012-09-30 12:40:00
9:05 AM,46.4,46.4,100,29.91,10.0,SSW,4.6,-,N/A,,Mostly Cloudy,210,2012-09-30 13:05:00
9:25 AM,46.4,46.4,100,29.91,10.0,SSW,3.5,-,N/A,,Overcast,200,2012-09-30 13:25:00
9:45 AM,48.2,46.4,93,29.91,10.0,SSW,4.6,-,N/A,,Mostly Cloudy,210,2012-09-30 13:45:00
10:05 AM,50.0,46.4,87,29.90,10.0,SSW,6.9,-,N/A,,Scattered Clouds,210,2012-09-30 14:05:00
10:30 AM,50.0,46.4,87,29.91,10.0,SW,8.1,-,N/A,,Mostly Cloudy,220,2012-09-30 14:30:00
10:50 AM,51.8,46.4,82,29.90,10.0,SW,8.1,-,N/A,,Overcast,220,2012-09-30 14:50:00
11:10 AM,50.0,46.4,87,29.90,10.0,SW,6.9,-,N/A,,Overcast,220,2012-09-30 15:10:00
11:30 AM,53.6,46.4,77,29.89,10.0,SW,6.9,-,N/A,,Overcast,220,2012-09-30 15:30:00
11:55 AM,51.8,46.4,82,29.90,10.0,SW,8.1,-,N/A,,Overcast,220,2012-09-30 15:55:00
12:15 PM,55.4,46.4,72,29.89,10.0,WSW,6.9,-,N/A,,Mostly Cloudy,250,2012-09-30 16:15:00
12:35 PM,57.2,46.4,67,29.89,10.0,WSW,11.5,17.3,N/A,,Mostly Cloudy,250,2012-09-30 16:35:00
12:55 PM,55.4,44.6,67,29.89,10.0,WSW,9.2,17.3,N/A,,Mostly Cloudy,250,2012-09-30 16:55:00
1:20 PM,59.0,44.6,59,29.88,10.0,SW,10.4,-,N/A,,Mostly Cloudy,230,2012-09-30 17:20:00
1:40 PM,59.0,41.0,51,29.88,10.0,WSW,10.4,18.4,N/A,,Mostly Cloudy,250,2012-09-30 17:40:00
2:00 PM,59.0,41.0,51,29.87,10.0,WSW,8.1,19.6,N/A,,Mostly Cloudy,250,2012-09-30 18:00:00
2:20 PM,57.2,41.0,55,29.87,10.0,WSW,12.7,21.9,N/A,,Overcast,250,2012-09-30 18:20:00
2:45 PM,60.8,42.8,52,29.87,10.0,NW,9.2,-,N/A,,Overcast,320,2012-09-30 18:45:00
3:05 PM,50.0,48.2,94,29.87,10.0,North,6.9,-,N/A,,Overcast,350,2012-09-30 19:05:00
3:25 PM,50.0,50.0,100,29.88,10.0,NNW,4.6,-,N/A,,Overcast,340,2012-09-30 19:25:00
3:45 PM,46.4,46.4,100,29.88,1.8,NNE,5.8,-,N/A,,Overcast,20,2012-09-30 19:45:00
4:10 PM,46.4,46.4,100,29.87,10.0,North,6.9,-,N/A,,Mostly Cloudy,360,2012-09-30 20:10:00
4:30 PM,46.4,46.4,100,29.89,3.0,North,8.1,-,N/A,,Overcast,360,2012-09-30 20:30:00
4:50 PM,46.4,46.4,100,29.88,10.0,NNE,5.8,-,N/A,,Overcast,20,2012-09-30 20:50:00
5:10 PM,46.4,46.4,100,29.90,2.0,NNW,5.8,-,N/A,,Overcast,330,2012-09-30 21:10:00
5:35 PM,44.6,44.6,100,29.88,2.5,Calm,Calm,-,N/A,,Overcast,0,2012-09-30 21:35:00
5:55 PM,44.6,44.6,100,29.88,10.0,Calm,Calm,-,N/A,,Overcast,0,2012-09-30 21:55:00
6:35 PM,44.6,44.6,100,29.88,10.0,SW,4.6,-,N/A,,Scattered Clouds,220,2012-09-30 22:35:00
7:00 PM,44.6,44.6,100,29.90,10.0,SW,3.5,-,N/A,,Clear,230,2012-09-30 23:00:00
7:20 PM,44.6,44.6,100,29.90,10.0,West,3.5,-,N/A,,Clear,270,2012-09-30 23:20:00
7:40 PM,44.6,44.6,100,29.91,10.0,West,4.6,-,N/A,,Scattered Clouds,280,2012-09-30 23:40:00
8:00 PM,44.6,44.6,100,29.91,10.0,West,3.5,-,N/A,,Scattered Clouds,280,2012-10-01 00:00:00
8:25 PM,44.6,44.6,100,29.92,10.0,WNW,3.5,-,N/A,,Clear,300,2012-10-01 00:25:00
8:45 PM,44.6,44.6,100,29.93,10.0,Calm,Calm,-,N/A,,Clear,0,2012-10-01 00:45:00
9:25 PM,44.6,44.6,100,29.93,10.0,NW,3.5,-,N/A,,Clear,310,2012-10-01 01:25:00
9:50 PM,44.6,44.6,100,29.94,10.0,West,3.5,-,N/A,,Clear,280,2012-10-01 01:50:00
10:10 PM,44.6,44.6,100,29.94,10.0,Calm,Calm,-,N/A,,Clear,0,2012-10-01 02:10:00
10:30 PM,44.6,42.8,93,29.94,10.0,Calm,Calm,-,N/A,,Clear,0,2012-10-01 02:30:00
10:50 PM,44.6,42.8,93,29.94,10.0,Calm,Calm,-,N/A,,Clear,0,2012-10-01 02:50:00
11:15 PM,44.6,41.0,87,29.95,10.0,Calm,Calm,-,N/A,,Clear,0,2012-10-01 03:15:00
11:35 PM,44.6,41.0,87,29.94,10.0,Calm,Calm,-,N/A,,Clear,0,2012-10-01 03:35:00